Regional Weather Roundup
Issued by NWS

Home | Current Version | Previous Version | Graphics & Text | Print | Product List | Glossary On
Versions: 1 2 3 4 5 6 7 8 9 10 11 12 13 14 15 16 17 18 19 20 21 22 23 24 25 26 27 28 29 30 31 32 33 34 35 36 37 38 39 40 41 42 43 44 45 46 47 48 49 50
456
ASUS44 KJAN 261303
RWRMS

MISSISSIPPI HOURLY WEATHER ROUNDUP
NATIONAL WEATHER SERVICE JACKSON MS
700 AM CST MON JAN 26 2015

NOTE: "FAIR: INDICATES FEW OR NO CLOUDS BELOW 12,000 FEET WITH NO
SIGNIFICANT WEATHER AND/OR OBSTRUCTIONS TO VISIBILITY.

MSZ001>002-007>008-010>013-018>021-025>028-034>036-261400-
NORTHWEST MISSISSIPPI

CITY           SKY/WX    TMP DP  RH WIND       PRES   REMARKS
CLARKSDALE     CLOUDY    39  34  81 N8        30.13R WCI  34
CLEVELAND      CLOUDY    41  36  82 N14       30.12R
GREENWOOD      CLOUDY    41  32  70 N8        30.11R
GREENVILLE     CLOUDY    43  34  70 NW8       30.12R
GRENADA        CLOUDY    37  32  81 NW6       30.11R WCI  33
OLIVE BRANCH   CLOUDY    36  34  93 N9G20     30.08R WCI  29
OXFORD         CLOUDY    37  30  75 NW10G21   30.08R WCI  30
TUNICA         CLOUDY    37  32  81 N13       30.12R WCI  29
$$

MSZ003>006-009-014>017-022>024-029>033-037>039-261400-
NORTHEAST MISSISSIPPI

CITY           SKY/WX    TMP DP  RH WIND       PRES   REMARKS
COLUMBUS AFB   CLOUDY    41  33  71 NW16G24   30.03R
CORINTH        CLOUDY    37  30  75 N8G17     30.03R WCI  31
GOLDN TRIANGLE CLOUDY    43  34  70 NW14      30.02R
STARKVILLE     CLOUDY    41  34  75 NW6       30.05R
TUPELO         CLOUDY    39  30  70 N21       30.04R WCI  29
$$

MSZ040-058-261400-
CENTRAL MISSISSIPPI

CITY           SKY/WX    TMP DP  RH WIND       PRES   REMARKS
JACKSON INTL   MOCLDY    45  34  65 NW12      30.08R
JACKSON HAWKNS CLOUDY    45  34  65 NW10      30.08R
MERIDIAN KEY   CLOUDY    45  35  68 NW8       30.04R
MERIDIAN NAS   CLOUDY    45  35  68 NW10      30.04R
RAYMOND        CLOUDY    45  39  81 NW10G18   30.10R
VICKSBURG      CLOUDY    45  34  65 N10       30.12R
$$

MSZ059>079-261400-
SOUTH MISSISSIPPI

CITY           SKY/WX    TMP DP  RH WIND       PRES   REMARKS
BROOKHAVEN     FAIR      41  34  75 W7        30.09R
HATTIESBURG    CLEAR     44  34  67 NW8       30.06R
MCCOMB         CLEAR     41  32  70 NW7       30.08R
NATCHEZ        CLEAR     41  32  70 NW7       30.13R
PINE BELT      PTCLDY    43  32  65 CALM      30.04S
$$

MSZ080>082-261400-
COASTAL MISSISSIPPI

CITY           SKY/WX    TMP DP  RH WIND       PRES   REMARKS
BAY ST LOUIS   CLEAR     43  30  61 NW5       30.07
BILOXI         CLEAR     42  36  79 VRB2      30.05R
PASCAGOULA     CLEAR     45  34  65 NW6       30.03S
GULFPORT       CLEAR     39  34  82 CALM      30.06R
$$



USA.gov is the U.S. government's official web portal to all federal, state and local government web resources and services.